Regional Weather Roundup
Issued by NWS

Home | Current Version | Previous Version | Text Only | Print | Product List | Glossary On
Versions: 1 2 3 4 5 6 7 8 9 10 11 12 13 14 15 16 17 18 19 20 21 22 23 24 25 26 27 28 29 30 31 32 33 34 35 36 37 38 39 40 41 42 43 44 45 46 47 48 49 50
000
ASUS45 KPSR 301200
RWRAZ

ARIZONA HOURLY REGIONAL WEATHER ROUNDUP
NATIONAL WEATHER SERVICE PHOENIX AZ
500 AM MST SUN AUG 30 2015

NOTE: FAIR INDICATES FEW OR NO CLOUDS BELOW 12,000 FEET WITH NO
SIGNIFICANT WEATHER AND/OR OBSTRUCTIONS TO VISIBILITY.

AZZ001>003-036-301300-
NORTHWEST ARIZONA

CITY           SKY/WX    TMP DP  RH WIND       PRES   REMARKS
KINGMAN        CLEAR     76  54  46 SE9       29.98S
6HR MIN TEMP:  72; 6HR MAX TEMP:  87;

$$

AZZ004>008-015-016-018-301300-
NORTH CENTRAL ARIZONA

CITY           SKY/WX    TMP DP  RH WIND       PRES   REMARKS
GRAND CANYON   CLEAR     49  43  80 CALM      30.26S
6HR MIN TEMP:  48; 6HR MAX TEMP:  55;

WILLIAMS       PTCLDY    57  50  77 S7        30.32S
PRESCOTT       PTCLDY    64  56  75 S5        30.16R
6HR MIN TEMP:  63; 6HR MAX TEMP:  71;

FLAGSTAFF      NOT AVBL
PAYSON         CLEAR     66  54  63 CALM      30.20S
PAGE           CLEAR     78  48  34 SW7       30.05R
6HR MIN TEMP:  77; 6HR MAX TEMP:  83;

$$

AZZ009>014-017-301300-
NORTHEAST ARIZONA

CITY           SKY/WX    TMP DP  RH WIND       PRES   REMARKS
WINSLOW        NOT AVBL
SAINT JOHNS    CLEAR     59  53  80 CALM      30.22R
6HR MIN TEMP:  58; 6HR MAX TEMP:  70;

WINDOW ROCK    CLEAR     52  45  77 CALM      30.30S
6HR MIN TEMP:  52; 6HR MAX TEMP:  71;

SHOW LOW       CLEAR     61  46  59 S10       30.28S
$$

AZZ023-301300-
GREATER PHOENIX AREA

CITY           SKY/WX    TMP DP  RH WIND       PRES   REMARKS
PHOENIX        PTCLDY    84  69  60 E9        29.84S
6HR MIN TEMP:  83; 6HR MAX TEMP:  87;

LUKE AFB       PTCLDY    85  66  52 NE5       29.84R
6HR MIN TEMP:  84; 6HR MAX TEMP:  92;

DEER VALLEY    PTCLDY    84  61  45 E6        29.87S
6HR MIN TEMP:  84; 6HR MAX TEMP:  89;

SCOTTSDALE     CLEAR     86  61  42 E3        29.89S
6HR MIN TEMP:  83; 6HR MAX TEMP:  88;

MESA-GATEWAY   PTCLDY    79  66  65 E7        29.89F
$$

AZZ027-028-301300-
SOUTHWEST MARICOPA COUNTY AND PINAL COUNTY

CITY           SKY/WX    TMP DP  RH WIND       PRES   REMARKS
CASA GRANDE    PTCLDY    82  61  47 CALM      29.87R
6HR MIN TEMP:  81; 6HR MAX TEMP:  90;

GILA BEND      FAIR      87  55  33 SE7       29.81R
6HR MIN TEMP:  86; 6HR MAX TEMP:  95;

$$

AZZ503-504-507>509-301300-
SOUTHEAST ARIZONA

CITY           SKY/WX    TMP DP  RH WIND       PRES   REMARKS
TUCSON         MOCLDY    81  56  42 SE12      29.99R
6HR MIN TEMP:  81; 6HR MAX TEMP:  85;

DAVIS-MONTHAN  CLEAR     78  58  50 SE12      29.98
6HR MIN TEMP:  78; 6HR MAX TEMP:  83;

NOGALES        MOCLDY    67  60  78 E5        30.08S
6HR MIN TEMP:  66; 6HR MAX TEMP:  74;

SIERRA VISTA   PTCLDY    65  58  75 N2        30.15R
6HR MIN TEMP:  65; 6HR MAX TEMP:  73;

SAFFORD        CLEAR     72  59  63 SE8       30.04R
6HR MIN TEMP:  71; 6HR MAX TEMP:  79;

$$

AZZ020-021-025-026-031-301300-
SOUTHWEST ARIZONA

CITY           SKY/WX    TMP DP  RH WIND       PRES   REMARKS
YUMA           NOT AVBL
$$

CAZ031-033-041-043-047-048-061-301300-
SOUTHERN CALIFORNIA

CITY           SKY/WX    TMP DP  RH WIND       PRES   REMARKS
DOWNTOWN L.A.  CLEAR     73  66  78 CALM      29.86R
6HR MIN TEMP:  73; 6HR MAX TEMP:  77;

L.A. AIRPORT   PTCLDY    72  67  84 CALM      29.86S
6HR MIN TEMP:  71; 6HR MAX TEMP:  74;

SAN DIEGO      PTCLDY    73  68  84 CALM      29.88S
6HR MIN TEMP:  73; 6HR MAX TEMP:  76;

BURBANK        CLEAR     74  64  71 E3        29.88R
6HR MIN TEMP:  73; 6HR MAX TEMP:  81;

ONTARIO        PTCLDY    74  59  59 CALM      29.89S
6HR MIN TEMP:  71; 6HR MAX TEMP:  80;

RIVERSIDE      CLEAR     72  60  66 CALM      29.89S
6HR MIN TEMP:  72; 6HR MAX TEMP:  80;

PALM SPRINGS   CLEAR     87  54  32 CALM      29.78R
6HR MIN TEMP:  86; 6HR MAX TEMP: 100;

EL CENTRO NAS  CLEAR     87  51  28 CALM      29.75R
6HR MIN TEMP:  84; 6HR MAX TEMP:  95;

IMPERIAL       CLEAR     87  51  28 SW5       29.73R
6HR MIN TEMP:  85; 6HR MAX TEMP:  94;

BLYTHE         CLEAR     89  55  31 SW3       29.75S
6HR MIN TEMP:  89; 6HR MAX TEMP: 102;

$$

NVZ020-UTZ003-301300-
SOUTHERN NEVADA-UTAH

CITY           SKY/WX    TMP DP  RH WIND       PRES   REMARKS
LAS VEGAS      NOT AVBL
SALT LAKE CITY MOCLDY    82  46  28 S10       29.91R
6HR MIN TEMP:  82; 6HR MAX TEMP:  85;

$$

NMZ009-TXZ055-301300-
NEW MEXICO-WEST TEXAS

CITY           SKY/WX    TMP DP  RH WIND       PRES   REMARKS
ALBUQUERQUE    CLEAR     66  49  54 NW6       30.22F
6HR MIN TEMP:  66; 6HR MAX TEMP:  75;

EL PASO        PTCLDY    71  55  56 E3        30.12S
6HR MIN TEMP:  71; 6HR MAX TEMP:  80;

$$


........................KEY........................
SKY/WX - SKY CONDITION/WEATHER
TMP    - TEMPERATURE IN FAHRENHEIT
DP     - DEW POINT IN FAHRENHEIT
RH     - RELATIVE HUMIDITY IN PERCENT
WIND   - DIRECTION AND SPEED IN MILES PER HOUR (MPH)
VRB    - VARIABLE WIND DIRECTION
PRES   - MEAN SEA LEVEL PRESSURE IN INCHES OF MERCURY
         F - FALLING PRESSURE   R - RISING PRESSURE
         S - STEADY PRESSURE
VSB    - VISIBILITY IN MILES
HX     - HEAT INDEX IN FAHRENHEIT
WCI    - WIND CHILL INDEX IN FAHRENHEIT
TC     - TEMPERATURE IN CELSIUS WHICH IS ALSO KNOWN AS
         TEMPERATURE IN CENTIGRADE
AFB    - AIR FORCE BASE
         LUKE AFB IS LUKE AIR FORCE BASE
         DAVIS-MONTHAN IS DAVIS-MONTHAN AIR FORCE BASE
NAS    - NAVAL AIR STATION
         EL CENTRO NAS IS EL CENTRO NAVAL AIR STATION
N/A    - NOT AVAILABLE




USA.gov is the U.S. government's official web portal to all federal, state and local government web resources and services.